Location: Kawakawa
(35.3830°S, 174.0670°E)
Time: 08:07:29
(UTC+13:00)

Envisat - Pass Details

Date: 28 November 2019
Orbit: 764 x 766 km, 98.1° (Epoch: 15 December)

Event Time Altitude Azimuth Distance (km) Brightness Sun altitude
Rises 20:56:52 0° 179° (S) 3,269 6.7 -7.3°
Reaches altitude 10° 20:59:24 10° 189° (S) 2,335 6.2 -7.7°
Maximum altitude 21:03:55 32° 250° (WSW) 1,308 5.1 -8.5°
Drops below altitude 10° 21:08:24 10° 312° (NW) 2,309 5.7 -9.2°
Sets 21:10:53 0° 321° (NW) 3,227 6.3 -9.7°
